Weather History for Monticello, AR

Change the Weather History Date:

Thursday, November 15, 2012

  Actual Average Record
Temperature  
Mean Temperature 44 °F -  
Max Temperature 57 °F 63 °F 84 °F (2005)
Min Temperature 30 °F 43 °F 21 °F (1969)
Degree Days  
Heating Degree Days 22    
Moisture  
Dew Point 35 °F    
Average Humidity 75    
Maximum Humidity 92    
Minimum Humidity 47    
Precipitation  
Precipitation 0.00 in - - ()
Sea Level Pressure  
Sea Level Pressure 30.33 in    
Wind  
Wind Speed 2 mph (NNE)    
Max Wind Speed 10 mph    
Max Gust Speed -    
Visibility 10 miles    
Events      
Averages and records for this station are not official NWS values.
T = Trace of Precipitation, MM = Missing Value Source: NWS Daily Summary

Daily Weather History Graph

Daily Weather History Graph

Search for Another Location

Airport:

Trip Planner

Search our weather history database for the weather conditions in past years. The results will help you decide how hot, cold, wet, or windy it might be!

Date:

Astronomy

Nov. 15, 2012 Rise Set
Actual Time 6:39 AM CST 5:03 PM CST
Civil Twilight 6:12 AM CST 5:30 PM CST
Nautical Twilight 5:42 AM CST 6:00 PM CST
Astronomical Twilight 5:13 AM CST 6:29 PM CST
Moon 8:32 AM CST (11/15) 6:58 PM CST (11/15)
Length of Visible Light 11h 17m
Length of Day
10h 24m
Waxing Crescent, 5% of the Moon is Illuminated
Nov 15
Waxing Crescent
Nov 20
First Quarter
Nov 28
Full
Dec 6
Last Quarter
Dec 13
New

Hourly Weather History & Observations

Time (CST) Temp. Windchill Dew Point Humidity Pressure Visibility Wind Dir Wind Speed Gust Speed Precip Events Conditions
12:53 AM 35.1 °F - 30.9 °F 85% 30.32 in 10.0 mi Calm Calm - N/A   Clear
1:53 AM 33.1 °F - 30.0 °F 89% 30.32 in 10.0 mi Calm Calm - N/A   Clear
2:53 AM 33.1 °F - 30.0 °F 89% 30.32 in 10.0 mi Calm Calm - N/A   Clear
3:53 AM 32.0 °F 27.5 °F 28.9 °F 88% 30.32 in 10.0 mi NNW 4.6 mph - N/A   Clear
4:53 AM 32.0 °F 28.7 °F 30.0 °F 92% 30.32 in 10.0 mi Variable 3.5 mph - N/A   Clear
5:53 AM 30.9 °F - 28.9 °F 92% 30.33 in 10.0 mi Calm Calm - N/A   Clear
6:53 AM 30.0 °F - 28.0 °F 92% 30.34 in 8.0 mi Calm Calm - N/A   Clear
7:53 AM 37.0 °F 34.5 °F 33.1 °F 86% 30.36 in 10.0 mi Variable 3.5 mph - N/A   Clear
8:53 AM 44.1 °F 42.5 °F 35.1 °F 71% 30.37 in 10.0 mi Variable 3.5 mph - N/A   Clear
9:53 AM 48.9 °F - 35.1 °F 59% 30.38 in 10.0 mi North 6.9 mph - N/A   Clear
10:53 AM 52.0 °F - 36.0 °F 54% 30.37 in 10.0 mi NE 6.9 mph - N/A   Clear
11:53 AM 55.0 °F - 36.0 °F 49% 30.35 in 10.0 mi ENE 6.9 mph - N/A   Clear
12:53 PM 55.9 °F - 37.0 °F 49% 30.32 in 10.0 mi NE 8.1 mph - N/A   Clear
1:53 PM 57.0 °F - 37.9 °F 49% 30.30 in 10.0 mi ENE 10.4 mph - N/A   Clear
2:53 PM 57.9 °F - 37.9 °F 47% 30.28 in 10.0 mi Calm Calm - N/A   Clear
3:53 PM 57.0 °F - 39.0 °F 51% 30.28 in 10.0 mi NE 8.1 mph - N/A   Clear
4:53 PM 54.0 °F - 39.9 °F 59% 30.30 in 10.0 mi NNE 3.5 mph - N/A   Clear
5:53 PM 48.0 °F - 39.9 °F 74% 30.31 in 10.0 mi Calm Calm - N/A   Clear
6:53 PM 44.1 °F - 39.0 °F 82% 30.32 in 10.0 mi Calm Calm - N/A   Clear
7:53 PM 42.1 °F 40.2 °F 39.0 °F 89% 30.33 in 10.0 mi North 3.5 mph - N/A   Clear
8:53 PM 41.0 °F 39.0 °F 37.0 °F 86% 30.34 in 10.0 mi Variable 3.5 mph - N/A   Clear
9:53 PM 41.0 °F - 37.0 °F 86% 30.34 in 10.0 mi Calm Calm - N/A   Clear
10:53 PM 37.9 °F - 35.1 °F 89% 30.35 in 10.0 mi Calm Calm - N/A   Clear
11:53 PM 35.1 °F 32.2 °F 33.1 °F 92% 30.35 in 8.0 mi NNW 3.5 mph - N/A   Clear